sat.trackr.live / text

‹ back to catalog

YAOGAN-40 03B

NORAD 65545 · 2025-199B

PAYLOAD ACTIVE UNKNOWN

§ Identity

Operator
Country
PRC
Launch date
2025-09-06
Launch site
TAISC
Launch vehicle
Mass (kg)
RCS (m²)

External: N2YO · Heavens-Above · Gunter

§ Orbital elements

Epoch: 2026-05-25T05:29:08.296800Z

Period
101.95 min
Inclination
85.9924°
Eccentricity
0.0001958
Mean motion
14.12444295 rev/d
Perigee alt
849.6 km
Apogee alt
852.4 km
Semi-major
7,229.2 km
B*
4.4933e-5
RAAN
54.3944°
Arg perigee
96.8573°
Mean anomaly
263.2833°
Rev number
3,679

§ Raw data

YAOGAN-40 03B1 65545U 25199B   26145.22856825  .00000102  00000+0  44933-4 0  99962 65545  85.9924  54.3944 0001958  96.8573 263.2833 14.12444295 36792

JSON: /api/v1/satellites/65545 · /tle

For live sub-satellite position, see the globe view (requires WebGL).

§ Visibility from observer

Set your observer location to see the next 7 days of passes ≥ 10°. The values pass through the URL so the page stays shareable.

No JS? Fill the form by hand. The geolocation button needs JavaScript.